Regional Weather Roundup
Issued by NWS

Home | Current Version | Previous Version | Text Only | Print | Product List | Glossary Off
Versions: 1 2 3 4 5 6 7 8 9 10 11 12 13 14 15 16 17 18 19 20 21 22 23 24 25 26 27 28

000
ASUS45 KSLC 241010
RWRUT

UTAH REGIONAL WEATHER ROUNDUP
NATIONAL WEATHER SERVICE SALT LAKE CITY UT
400 AM MDT THU APR 24 2014

UTZ001>011-023>025-241100-

NORTHERN UTAH

CITY           SKY/WX    TMP DP  RH WIND       PRES   REMARKS
HILL AFB         N/A     38  20  49 SE10      30.05S WCI  31
LOGAN          CLEAR     32  26  78 CALM      30.04F
OGDEN            N/A     38  22  52 S10       30.04S WCI  31
PROVO AIRPORT    N/A     34  21  60 SE9       30.11R WCI  26
SALT LAKE CITY   N/A     39  22  50 SE10      30.06S WCI  32
VERNAL         CLEAR     29  13  51 CALM      30.09R
WENDOVER         N/A     39  18  41 NE5       30.03S
HEBER CITY       N/A     23  19  86 CALM      30.11R
WEST JORDAN    CLEAR     36  25  64 S8        30.08R WCI  29

$$

UTZ012>022-026-027-241100-

SOUTHERN UTAH

CITY           SKY/WX    TMP DP  RH WIND       PRES   REMARKS
BRYCE CANYON     N/A     17   9  70 SW5       30.13R WCI  10
CEDAR CITY       N/A     30  12  47 CALM      30.07R
MILFORD          N/A     32   7  35 SW8       30.07S WCI  25
MOAB/CYNLANDS  CLEAR     37   6  27 CALM      30.07R
PRICE            N/A     30   9  41 CALM      30.09R
ST GEORGE        N/A     52  14  22 SE5       30.02S

$$

REGIONAL REPORTS     COLORADO/ARIZONA

CITY           SKY/WX    TMP DP  RH WIND       PRES   REMARKS
CRAIG, CO      CLEAR     22  17  81 E5        30.10S WCI  16
GRAND JUNCTION CLEAR     34  11  38 S3        30.09R
RIFLE          CLEAR     28  14  55 S6        30.10S WCI  22
MONTROSE       CLEAR     33  14  45 SE10      30.13R WCI  25
CORTEZ         CLEAR     28  13  53 E5        30.09R WCI  23
PAGE, AZ         N/A     49  11  21 SE3       30.05R
GRAND CANYON     N/A     24   8  50 CALM      30.11S
KINGMAN          N/A     46   7  20 E3        29.99F
FLAGSTAFF        N/A     27  10  49 CALM      30.13R

$$

REGIONAL REPORTS    NEVADA/IDAHO/WYOMING

CITY           SKY/WX    TMP DP  RH WIND       PRES   REMARKS
LAS VEGAS, NV    N/A     61  14  16 S8        29.91R
ELY              N/A     25  15  66 S12       30.07F WCI  14
ELKO           MOCLDY    34  24  67 E5        30.01F WCI  30
POCATELLO, ID  CLEAR     43  23  45 S15       29.99F
BURLEY           N/A     39  28  64 S13       29.96F WCI  31
EVANSTON, WY   CLEAR     25  15  66 SW7       30.06S WCI  17
ROCK SPRINGS   PTCLDY    29  13  51 SW10      30.04F WCI  20

$$



USA.gov is the U.S. government's official web portal to all federal, state and local government web resources and services.